Time,TemperatureF,DewpointF,PressureIn,WindDirection,WindDirectionDegrees,WindSpeedMPH,WindSpeedGustMPH,Humidity,HourlyPrecipIn,Conditions,Clouds,dailyrainin,SolarRadiationWatts/m^2,SoftwareType,DateUTC
2013-04-09 00:03:00,52.4,41.0,30.04,NE,48,4.0,12.0,66,0.00,,,0.00,0,weatherlink.com 1.10,2013-04-09 07:03:00,
2013-04-09 00:18:00,52.2,41.0,30.04,NE,55,5.0,10.0,66,0.00,,,0.00,0,weatherlink.com 1.10,2013-04-09 07:18:00,
2013-04-09 00:33:00,51.9,41.0,30.05,NNE,26,5.0,12.0,67,0.00,,,0.00,0,weatherlink.com 1.10,2013-04-09 07:33:00,
2013-04-09 00:48:00,51.7,41.0,30.06,ENE,78,5.0,11.0,68,0.00,,,0.00,0,weatherlink.com 1.10,2013-04-09 07:48:00,
2013-04-09 01:03:00,51.5,41.0,30.06,North,360,8.0,10.0,68,0.00,,,0.00,0,weatherlink.com 1.10,2013-04-09 08:03:00,
2013-04-09 01:48:00,51.5,41.0,30.06,NNE,24,7.0,13.0,68,0.00,,,0.00,0,weatherlink.com 1.10,2013-04-09 08:48:00,
2013-04-09 02:03:00,51.2,41.0,30.06,ENE,58,5.0,10.0,68,0.00,,,0.00,0,weatherlink.com 1.10,2013-04-09 09:03:00,
2013-04-09 02:49:00,50.0,41.0,30.07,NE,55,3.0,12.0,71,0.00,,,0.00,0,weatherlink.com 1.10,2013-04-09 09:49:00,
2013-04-09 03:04:00,49.9,41.0,30.07,ENE,60,4.0,9.0,71,0.00,,,0.00,0,weatherlink.com 1.10,2013-04-09 10:04:00,
2013-04-09 03:19:00,50.2,41.0,30.06,NNE,32,6.0,14.0,71,0.00,,,0.00,0,weatherlink.com 1.10,2013-04-09 10:19:00,
2013-04-09 03:34:00,50.0,41.0,30.06,North,9,3.0,11.0,71,0.00,,,0.00,0,weatherlink.com 1.10,2013-04-09 10:34:00,
2013-04-09 03:49:00,48.5,41.0,30.07,NNE,13,2.0,4.0,74,0.00,,,0.00,0,weatherlink.com 1.10,2013-04-09 10:49:00,
2013-04-09 04:04:00,47.8,41.0,30.06,NNE,26,2.0,4.0,76,0.00,,,0.00,0,weatherlink.com 1.10,2013-04-09 11:04:00,
2013-04-09 04:19:00,47.2,40.0,30.07,NNE,13,2.0,3.0,77,0.00,,,0.00,0,weatherlink.com 1.10,2013-04-09 11:19:00,
2013-04-09 04:34:00,47.4,41.0,30.07,ENE,61,0.0,5.0,77,0.00,,,0.00,0,weatherlink.com 1.10,2013-04-09 11:34:00,
2013-04-09 04:49:00,47.7,40.0,30.07,ENE,73,1.0,4.0,76,0.00,,,0.00,0,weatherlink.com 1.10,2013-04-09 11:49:00,
2013-04-09 05:04:00,47.8,40.0,30.07,NE,45,6.0,6.0,75,0.00,,,0.00,0,weatherlink.com 1.10,2013-04-09 12:04:00,
2013-04-09 05:19:00,48.4,40.0,30.07,ENE,77,1.0,10.0,74,0.00,,,0.00,0,weatherlink.com 1.10,2013-04-09 12:19:00,
2013-04-09 05:34:00,48.3,40.0,30.08,NNE,32,4.0,8.0,74,0.00,,,0.00,0,weatherlink.com 1.10,2013-04-09 12:34:00,
2013-04-09 05:49:00,48.1,40.0,30.08,ENE,69,2.0,9.0,74,0.00,,,0.00,0,weatherlink.com 1.10,2013-04-09 12:49:00,
2013-04-09 06:04:00,48.1,40.0,30.08,ENE,63,5.0,8.0,74,0.00,,,0.00,0,weatherlink.com 1.10,2013-04-09 13:04:00,
2013-04-09 06:34:00,46.5,40.0,30.08,ENE,77,4.0,7.0,77,0.00,,,0.00,0,weatherlink.com 1.10,2013-04-09 13:34:00,
2013-04-09 06:49:00,47.3,40.0,30.09,East,92,1.0,6.0,75,0.00,,,0.00,7,weatherlink.com 1.10,2013-04-09 13:49:00,
2013-04-09 07:04:00,46.0,40.0,30.09,ENE,66,3.0,6.0,78,0.00,,,0.00,14,weatherlink.com 1.10,2013-04-09 14:04:00,
2013-04-09 07:19:00,47.3,40.0,30.09,ENE,59,3.0,7.0,75,0.00,,,0.00,23,weatherlink.com 1.10,2013-04-09 14:19:00,
2013-04-09 07:34:00,48.3,40.0,30.09,NNE,13,5.0,8.0,73,0.00,,,0.00,67,weatherlink.com 1.10,2013-04-09 14:34:00,
2013-04-09 07:49:00,49.4,40.0,30.09,NE,36,3.0,10.0,71,0.00,,,0.00,183,weatherlink.com 1.10,2013-04-09 14:49:00,
2013-04-09 08:04:00,50.3,40.0,30.11,ENE,64,5.0,13.0,68,0.00,,,0.00,243,weatherlink.com 1.10,2013-04-09 15:04:00,
2013-04-09 08:19:00,51.4,40.0,30.11,ESE,113,4.0,11.0,66,0.00,,,0.00,294,weatherlink.com 1.10,2013-04-09 15:19:00,
2013-04-09 08:34:00,52.7,40.0,30.11,NE,53,7.0,9.0,63,0.00,,,0.00,345,weatherlink.com 1.10,2013-04-09 15:34:00,
2013-04-09 08:50:00,54.0,40.0,30.11,ENE,59,7.0,11.0,59,0.00,,,0.00,399,weatherlink.com 1.10,2013-04-09 15:50:00,
2013-04-09 09:05:00,55.1,40.0,30.10,ENE,63,8.0,12.0,57,0.00,,,0.00,450,weatherlink.com 1.10,2013-04-09 16:05:00,
2013-04-09 09:20:00,56.0,40.0,30.10,ENE,59,10.0,12.0,56,0.00,,,0.00,499,weatherlink.com 1.10,2013-04-09 16:20:00,
2013-04-09 09:35:00,57.1,41.0,30.10,ENE,61,12.0,12.0,55,0.00,,,0.00,548,weatherlink.com 1.10,2013-04-09 16:35:00,
2013-04-09 09:50:00,57.6,40.0,30.10,North,5,4.0,10.0,53,0.00,,,0.00,589,weatherlink.com 1.10,2013-04-09 16:50:00,
2013-04-09 10:05:00,58.9,40.0,30.10,NE,41,5.0,9.0,50,0.00,,,0.00,629,weatherlink.com 1.10,2013-04-09 17:05:00,
2013-04-09 10:20:00,60.2,40.0,30.10,NW,317,4.0,10.0,48,0.00,,,0.00,673,weatherlink.com 1.10,2013-04-09 17:20:00,
2013-04-09 10:35:00,62.1,41.0,30.10,NE,49,3.0,9.0,46,0.00,,,0.00,707,weatherlink.com 1.10,2013-04-09 17:35:00,
2013-04-09 10:50:00,62.9,40.0,30.10,WNW,302,6.0,11.0,44,0.00,,,0.00,740,weatherlink.com 1.10,2013-04-09 17:50:00,
2013-04-09 11:05:00,64.0,41.0,30.10,NNE,29,2.0,9.0,43,0.00,,,0.00,766,weatherlink.com 1.10,2013-04-09 18:05:00,
2013-04-09 11:20:00,65.0,40.0,30.10,NW,309,5.0,9.0,40,0.00,,,0.00,793,weatherlink.com 1.10,2013-04-09 18:20:00,
2013-04-09 11:35:00,65.4,40.0,30.09,NNW,333,3.0,12.0,39,0.00,,,0.00,816,weatherlink.com 1.10,2013-04-09 18:35:00,
2013-04-09 11:50:00,66.5,42.0,30.09,WNW,298,3.0,10.0,41,0.00,,,0.00,833,weatherlink.com 1.10,2013-04-09 18:50:00,
2013-04-09 12:05:00,67.0,45.0,30.09,WNW,287,5.0,13.0,45,0.00,,,0.00,847,weatherlink.com 1.10,2013-04-09 19:05:00,
2013-04-09 12:20:00,67.3,41.0,30.09,WNW,297,3.0,12.0,39,0.00,,,0.00,809,weatherlink.com 1.10,2013-04-09 19:20:00,
2013-04-09 12:36:00,68.3,42.0,30.08,North,5,6.0,11.0,39,0.00,,,0.00,60,weatherlink.com 1.10,2013-04-09 19:36:00,
2013-04-09 12:51:00,68.2,42.0,30.07,NW,315,4.0,11.0,39,0.00,,,0.00,46,weatherlink.com 1.10,2013-04-09 19:51:00,
2013-04-09 13:06:00,69.4,44.0,30.07,NE,34,5.0,9.0,40,0.00,,,0.00,46,weatherlink.com 1.10,2013-04-09 20:06:00,
2013-04-09 13:21:00,69.9,45.0,30.06,NNW,335,4.0,10.0,41,0.00,,,0.00,46,weatherlink.com 1.10,2013-04-09 20:21:00,
2013-04-09 13:36:00,70.4,44.0,30.05,NE,36,5.0,11.0,39,0.00,,,0.00,107,weatherlink.com 1.10,2013-04-09 20:36:00,
2013-04-09 13:51:00,70.8,45.0,30.05,NNE,13,5.0,13.0,39,0.00,,,0.00,817,weatherlink.com 1.10,2013-04-09 20:51:00,
2013-04-09 14:06:00,71.3,45.0,30.05,NW,315,2.0,10.0,39,0.00,,,0.00,835,weatherlink.com 1.10,2013-04-09 21:06:00,
2013-04-09 14:21:00,71.9,49.0,30.05,WNW,291,10.0,14.0,44,0.00,,,0.00,44,weatherlink.com 1.10,2013-04-09 21:21:00,
2013-04-09 15:06:00,72.3,51.0,30.04,NW,320,7.0,13.0,48,0.00,,,0.00,385,weatherlink.com 1.10,2013-04-09 22:06:00,
2013-04-09 15:51:00,70.4,51.0,30.03,West,281,9.0,14.0,51,0.00,,,0.00,636,weatherlink.com 1.10,2013-04-09 22:51:00,
2013-04-09 16:06:00,70.5,51.0,30.03,NW,309,7.0,17.0,50,0.00,,,0.00,596,weatherlink.com 1.10,2013-04-09 23:06:00,
2013-04-09 16:51:00,72.6,51.0,30.03,NNW,345,4.0,9.0,47,0.00,,,0.00,432,weatherlink.com 1.10,2013-04-09 23:51:00,
2013-04-09 17:36:00,70.3,51.0,30.02,WNW,285,9.0,12.0,50,0.00,,,0.00,40,weatherlink.com 1.10,2013-04-10 00:36:00,
2013-04-09 17:51:00,69.0,51.0,30.03,NW,317,4.0,10.0,53,0.00,,,0.00,246,weatherlink.com 1.10,2013-04-10 00:51:00,
2013-04-09 18:06:00,68.2,51.0,30.03,WNW,294,3.0,9.0,55,0.00,,,0.00,40,weatherlink.com 1.10,2013-04-10 01:06:00,
2013-04-09 18:21:00,67.9,51.0,30.03,WNW,301,5.0,10.0,56,0.00,,,0.00,153,weatherlink.com 1.10,2013-04-10 01:21:00,
2013-04-09 18:36:00,68.2,52.0,30.03,WNW,295,3.0,6.0,56,0.00,,,0.00,102,weatherlink.com 1.10,2013-04-10 01:36:00,
2013-04-09 18:51:00,67.2,51.0,30.04,NW,306,4.0,8.0,56,0.00,,,0.00,54,weatherlink.com 1.10,2013-04-10 01:51:00,
2013-04-09 19:36:00,64.4,49.0,30.05,WNW,291,0.0,5.0,57,0.00,,,0.00,7,weatherlink.com 1.10,2013-04-10 02:36:00,
2013-04-09 19:51:00,63.7,48.0,30.05,NW,310,3.0,4.0,58,0.00,,,0.00,0,weatherlink.com 1.10,2013-04-10 02:51:00,
2013-04-09 20:06:00,62.8,49.0,30.06,WNW,299,0.0,3.0,60,0.00,,,0.00,0,weatherlink.com 1.10,2013-04-10 03:06:00,
2013-04-09 20:21:00,62.2,48.0,30.06,WNW,299,2.0,4.0,61,0.00,,,0.00,0,weatherlink.com 1.10,2013-04-10 03:21:00,
2013-04-09 20:36:00,61.7,50.0,30.06,North,355,1.0,3.0,65,0.00,,,0.00,0,weatherlink.com 1.10,2013-04-10 03:36:00,
2013-04-09 20:51:00,60.9,49.0,30.07,North,5,0.0,2.0,66,0.00,,,0.00,0,weatherlink.com 1.10,2013-04-10 03:51:00,
2013-04-09 21:06:00,60.2,50.0,30.07,NNW,348,0.0,3.0,68,0.00,,,0.00,0,weatherlink.com 1.10,2013-04-10 04:06:00,
2013-04-09 21:36:00,58.5,48.0,30.08,NW,321,1.0,2.0,69,0.00,,,0.00,0,weatherlink.com 1.10,2013-04-10 04:36:00,
2013-04-09 21:51:00,58.5,45.0,30.08,NE,46,1.0,5.0,62,0.00,,,0.00,0,weatherlink.com 1.10,2013-04-10 04:51:00,
2013-04-09 22:06:00,63.8,44.0,30.08,ENE,74,2.0,8.0,49,0.00,,,0.00,0,weatherlink.com 1.10,2013-04-10 05:06:00,
2013-04-09 22:21:00,64.5,44.0,30.08,NE,46,2.0,8.0,48,0.00,,,0.00,0,weatherlink.com 1.10,2013-04-10 05:21:00,
2013-04-09 22:36:00,64.2,44.0,30.08,NE,53,0.0,8.0,49,0.00,,,0.00,0,weatherlink.com 1.10,2013-04-10 05:36:00,
2013-04-09 23:06:00,64.4,44.0,30.08,North,9,8.0,11.0,47,0.00,,,0.00,0,weatherlink.com 1.10,2013-04-10 06:06:00,
2013-04-09 23:21:00,63.2,44.0,30.09,West,265,7.0,8.0,50,0.00,,,0.00,0,weatherlink.com 1.10,2013-04-10 06:21:00,
2013-04-09 23:36:00,61.8,44.0,30.09,NNW,338,1.0,4.0,53,0.00,,,0.00,0,weatherlink.com 1.10,2013-04-10 06:36:00,
2013-04-09 23:51:00,61.9,43.0,30.09,NNE,22,3.0,5.0,51,0.00,,,0.00,0,weatherlink.com 1.10,2013-04-10 06:51:00,